CW9455 Weather Reports


Display with metric or nautical units.
time (UTC)temp
F
wind
direction
speed
MPH
gust
MPH
rain 1hr
in
rain 24hr
in
rain mn
in
humidity
%
barometer
mb
20190120230639 27 24 20.0 30.0 0.00 0.60 2.00 77 994.0
20190120230140 28 0 20.0 32.0 0.00 0.60 2.00 77 993.7
20190120225639 28 350 19.0 32.0 0.00 0.60 2.00 76 993.6
20190120225139 28 11 18.0 30.0 0.00 0.60 2.00 78 993.4
20190120224641 29 329 17.0 29.0 0.00 0.60 2.00 79 993.3
20190120224140 29 348 17.0 28.0 0.00 0.60 2.00 79 993.2
20190120223639 29 11 18.0 29.0 0.00 0.60 2.00 79 993.0
20190120223140 29 20 16.0 29.0 0.00 0.60 2.00 80 992.8
20190120222638 30 23 15.0 27.0 0.00 0.60 2.00 81 992.6
20190120222139 30 342 14.0 24.0 0.00 0.60 2.00 81 992.8
20190120221640 31 341 17.0 31.0 0.00 0.60 2.00 81 992.7
20190120221138 31 21 20.0 31.0 0.00 0.60 2.00 78 992.5
20190120220639 31 23 19.0 28.0 0.00 0.60 2.00 77 992.1
20190120220139 31 14 18.0 33.0 0.00 0.60 2.00 78 992.1
20190120215640 31 15 18.0 33.0 0.00 0.60 2.00 78 991.6
20190120215140 31 24 16.0 27.0 0.00 0.60 2.00 80 991.3
20190120214639 32 13 16.0 27.0 0.00 0.60 2.00 81 991.2
20190120214139 32 28 18.0 27.0 0.00 0.60 2.00 81 991.2
20190120213638 32 0 17.0 27.0 0.00 0.60 2.00 82 991.1
20190120213138 32 15 16.0 27.0 0.00 0.60 2.00 82 990.8
20190120212640 32 18 16.0 27.0 0.00 0.60 2.00 84 990.7
20190120212140 32 32 17.0 27.0 0.00 0.60 2.00 83 990.6
20190120211639 32 10 15.0 27.0 0.00 0.60 2.00 84 990.5
20190120211138 32 20 16.0 23.0 0.00 0.60 2.00 85 990.3
20190120210640 32 34 17.0 29.0 0.00 0.60 2.00 85 990.0
20190120210136 32 0 16.0 29.0 0.00 0.60 2.00 85 989.7
20190120205636 32 10 15.0 23.0 0.00 0.60 2.00 87 989.6
20190120205136 32 22 15.0 23.0 0.00 0.60 2.00 87 989.7
20190120204637 32 9 16.0 29.0 0.00 0.60 2.00 88 989.5
20190120204137 32 29 16.0 29.0 0.00 0.60 2.00 88 989.3
20190120203637 32 40 15.0 26.0 0.00 0.60 2.00 89 988.9
20190120203138 32 25 15.0 26.0 0.00 0.60 2.00 89 988.9
20190120202638 32 32 15.0 25.0 0.00 0.60 2.00 89 988.9
20190120202138 32 29 16.0 26.0 0.00 0.60 2.00 90 988.8
20190120201636 32 11 16.0 28.0 0.00 0.60 2.00 90 988.6
20190120201135 32 5 16.0 28.0 0.00 0.60 2.00 91 988.3
20190120200634 32 24 16.0 27.0 0.00 0.60 2.00 91 988.2
20190120200135 32 24 15.0 27.0 0.00 0.60 2.00 92 988.2
20190120195636 32 51 15.0 26.0 0.00 0.60 2.00 92 988.2
20190120195137 31 37 16.0 26.0 0.00 0.60 2.00 92 987.8
20190120194635 31 0 16.0 29.0 0.00 0.60 2.00 92 987.5
20190120194136 31 30 19.0 30.0 0.01 0.60 2.00 92 987.3
20190120193635 31 38 19.0 30.0 0.02 0.60 2.00 92 987.0
20190120193135 31 29 19.0 31.0 0.02 0.60 2.00 92 987.0
20190120192636 31 44 19.0 31.0 0.02 0.60 2.00 93 987.0
20190120192135 31 35 18.0 29.0 0.02 0.60 2.00 93 987.0
20190120191635 31 48 16.0 27.0 0.02 0.60 2.00 93 986.7
20190120191134 31 18 18.0 32.0 0.02 0.60 2.00 93 986.5
20190120190636 31 19 19.0 32.0 0.02 0.60 2.00 92 986.7
20190120190135 32 19 18.0 29.0 0.02 0.60 2.00 92 986.5
20190120185636 34 11 19.0 29.0 0.03 0.60 2.00 92 986.4
20190120185134 36 48 18.0 31.0 0.04 0.60 2.00 91 986.2
20190120184635 40 18 13.0 31.0 0.05 0.60 2.00 90 985.9
20190120184135 47 37 9.0 26.0 0.05 0.59 1.99 94 985.9
20190120183635 49 13 10.0 20.0 0.06 0.58 1.98 95 985.8
20190120183135 52 321 12.0 20.0 0.09 0.58 1.98 95 985.7
20190120182635 51 243 12.0 20.0 0.09 0.58 1.98 95 985.1
20190120182136 52 231 12.0 21.0 0.10 0.58 1.98 95 985.1
20190120181635 52 237 12.0 21.0 0.10 0.58 1.98 96 985.1
20190120181133 51 271 12.0 19.0 0.10 0.58 1.98 95 985.1
20190120180634 51 226 9.0 19.0 0.10 0.58 1.98 95 985.5
20190120180134 49 241 8.0 18.0 0.10 0.58 1.98 95 985.3
20190120175632 48 247 8.0 18.0 0.09 0.57 1.97 95 985.5
20190120175132 46 198 7.0 15.0 0.08 0.56 1.96 95 985.5
20190120174632 45 157 7.0 11.0 0.06 0.54 1.95 95 985.6
20190120174133 45 196 7.0 13.0 0.06 0.54 1.94 95 985.8
20190120173632 45 164 6.0 13.0 0.04 0.52 1.93 95 985.9
20190120173133 45 198 6.0 13.0 0.01 0.49 1.89 95 986.4
20190120172633 44 176 6.0 13.0 0.01 0.49 1.89 95 986.4
20190120172133 44 208 6.0 15.0 0.01 0.48 1.88 95 986.7
20190120171633 44 172 7.0 15.0 0.02 0.48 1.88 94 986.7
20190120171132 43 178 8.0 17.0 0.04 0.48 1.88 95 987.1
20190120170634 43 163 8.0 17.0 0.04 0.48 1.88 94 987.1
20190120170133 43 172 10.0 19.0 0.06 0.48 1.88 94 987.1
20190120165634 42 167 10.0 21.0 0.07 0.48 1.88 94 986.8
20190120165132 43 183 9.0 21.0 0.08 0.48 1.88 95 987.4
20190120164632 42 163 8.0 20.0 0.09 0.48 1.88 94 987.8
20190120164131 42 171 8.0 18.0 0.10 0.48 1.88 94 988.0
20190120163630 42 117 8.0 18.0 0.11 0.48 1.88 94 988.1
20190120163131 41 117 8.0 17.0 0.12 0.48 1.88 94 988.2
20190120162632 41 150 9.0 17.0 0.13 0.48 1.88 94 988.7
20190120162129 41 156 9.0 18.0 0.13 0.47 1.87 94 989.1
20190120161629 41 168 9.0 18.0 0.12 0.46 1.86 94 989.8
20190120161128 40 153 8.0 16.0 0.12 0.44 1.85 94 990.0
20190120160629 40 178 8.0 16.0 0.14 0.44 1.84 94 990.2
20190120160129 40 114 8.0 16.0 0.13 0.42 1.82 94 990.5
20190120155626 40 162 9.0 16.0 0.14 0.41 1.81 94 990.6
20190120155127 40 132 9.0 16.0 0.15 0.40 1.80 94 990.7
20190120154626 40 165 7.0 15.0 0.15 0.39 1.79 94 991.0
20190120154126 40 167 5.0 10.0 0.14 0.38 1.78 94 991.2
20190120153627 40 152 5.0 11.0 0.13 0.37 1.77 94 991.1
20190120153126 40 105 5.0 11.0 0.13 0.36 1.76 94 991.1
20190120152626 40 134 5.0 12.0 0.13 0.35 1.75 94 991.4
20190120152127 40 121 7.0 13.0 0.13 0.34 1.74 94 991.5
20190120151626 40 135 6.0 13.0 0.15 0.34 1.74 94 991.8
20190120151128 39 144 5.0 13.0 0.15 0.32 1.72 94 992.3
20190120150624 39 115 7.0 17.0 0.17 0.30 1.70 94 992.4
20190120150126 39 128 9.0 17.0 0.18 0.29 1.69 94 992.3
20190120145624 39 130 8.0 14.0 0.17 0.27 1.67 94 992.6
20190120145124 39 96 6.0 12.0 0.17 0.25 1.66 94 992.8
20190120144625 39 103 4.0 9.0 0.18 0.24 1.64 94 993.1
20190120144124 39 101 4.0 9.0 0.20 0.24 1.64 94 993.1
20190120143626 39 153 5.0 10.0 0.23 0.24 1.64 94 993.1
20190120143126 39 126 5.0 10.0 0.23 0.23 1.63 94 993.2
20190120142624 38 124 6.0 13.0 0.22 0.22 1.62 94 993.4
20190120142125 38 169 7.0 13.0 0.21 0.21 1.61 93 993.2
20190120141623 38 155 7.0 13.0 0.19 0.19 1.60 93 993.2
20190120141123 38 109 7.0 13.0 0.16 0.16 1.57 93 993.9
20190120140622 38 121 8.0 14.0 0.13 0.13 1.54 93 994.0
20190120140122 38 95 7.0 14.0 0.11 0.11 1.51 93 993.9
20190120135623 38 98 7.0 13.0 0.10 0.10 1.50 93 994.0
20190120135121 38 108 8.0 14.0 0.08 0.08 1.48 93 994.0
20190120134622 38 86 9.0 14.0 0.06 0.06 1.47 93 994.0
20190120134123 38 95 9.0 14.0 0.04 0.04 1.44 93 994.2
20190120133622 38 84 9.0 14.0 0.01 0.01 1.42 93 994.5
20190120133123 38 90 10.0 4.0 0.00 0.00 1.40 93 994.3
20190120132256 38 96 10.0 15.0 0.32 1.52 1.37 93 994.5
20190120131756 38 91 10.0 16.0 0.30 1.50 1.36 93 994.7
20190120131256 38 83 9.0 16.0 0.28 1.47 1.33 93 994.9
20190120130756 38 98 9.0 14.0 0.26 1.45 1.30 93 995.1
20190120130256 38 90 8.0 13.0 0.24 1.42 1.28 93 995.2
20190120125757 38 107 9.0 15.0 0.20 1.37 1.23 93 995.4
20190120125257 38 78 9.0 15.0 0.18 1.35 1.20 93 995.4
20190120124756 38 91 10.0 17.0 0.15 1.31 1.17 93 995.5
20190120124255 37 105 10.0 17.0 0.13 1.28 1.13 93 995.4
20190120123756 37 111 10.0 18.0 0.09 1.23 1.09 93 995.6
20190120123256 37 90 10.0 18.0 0.08 1.21 1.06 93 995.8
20190120122755 37 95 10.0 16.0 0.08 1.20 1.05 93 995.9
20190120122256 37 109 10.0 17.0 0.09 1.20 1.05 93 996.0
20190120121756 37 87 11.0 18.0 0.10 1.20 1.05 93 996.1
20190120121254 37 72 9.0 18.0 0.10 1.19 1.04 93 995.9
20190120120755 37 101 10.0 16.0 0.13 1.19 1.04 93 996.4
20190120120254 38 88 11.0 17.0 0.14 1.18 1.03 93 996.4
20190120115754 38 82 11.0 17.0 0.15 1.17 1.03 93 996.6
20190120115255 38 69 12.0 18.0 0.17 1.17 1.02 93 996.6
20190120114754 39 99 11.0 18.0 0.18 1.16 1.01 93 997.0
20190120114254 39 85 10.0 15.0 0.20 1.15 1.00 93 997.3
20190120113755 39 91 10.0 16.0 0.21 1.14 0.99 93 997.5
20190120113251 39 78 11.0 19.0 0.21 1.13 0.98 93 997.7
20190120112753 39 90 12.0 20.0 0.23 1.12 0.97 93 997.6
20190120112252 39 103 12.0 20.0 0.23 1.11 0.96 93 997.9
20190120111753 39 87 11.0 23.0 0.24 1.10 0.95 93 997.8
20190120111252 38 59 10.0 23.0 0.25 1.09 0.94 93 997.7
20190120110753 38 117 9.0 18.0 0.22 1.06 0.92 93 997.9
20190120110253 38 141 9.0 16.0 0.20 1.04 0.89 93 998.2
20190120105752 38 128 9.0 18.0 0.18 1.02 0.87 93 998.2
20190120105252 38 125 9.0 18.0 0.17 1.00 0.85 93 998.3
20190120104751 38 165 8.0 16.0 0.15 0.98 0.83 93 998.9
20190120104252 38 119 9.0 20.0 0.12 0.95 0.80 93 998.9
20190120103751 38 113 11.0 20.0 0.10 0.93 0.78 92 998.7
20190120103252 38 132 10.0 20.0 0.09 0.92 0.77 92 998.9
20190120102751 38 40 10.0 18.0 0.07 0.89 0.75 92 999.0
20190120102252 38 98 10.0 18.0 0.06 0.88 0.73 92 999.0
20190120101751 38 134 10.0 20.0 0.05 0.86 0.71 92 999.3
20190120101253 38 107 11.0 21.0 0.04 0.84 0.69 92 999.7
20190120100752 38 104 11.0 21.0 0.05 0.84 0.69 92 999.8
20190120100253 38 103 12.0 24.0 0.06 0.84 0.69 92 999.9
20190120095753 38 104 13.0 25.0 0.06 0.84 0.69 92 1000.0
20190120095252 38 101 11.0 25.0 0.07 0.83 0.68 92 1000.2
20190120094751 39 138 11.0 20.0 0.08 0.83 0.68 92 1000.5
20190120094251 39 127 13.0 29.0 0.08 0.83 0.68 92 1000.3
20190120093753 39 179 14.0 31.0 0.09 0.83 0.68 92 1000.2
20190120093253 39 148 14.0 31.0 0.11 0.83 0.68 92 1000.1
20190120092751 39 123 15.0 30.0 0.15 0.82 0.67 92 1001.0
20190120092252 39 113 14.0 30.0 0.15 0.82 0.67 92 1000.7
20190120091753 40 143 13.0 27.0 0.15 0.81 0.66 92 1001.4
20190120091251 40 128 14.0 29.0 0.15 0.80 0.65 92 1002.1
20190120090752 40 119 15.0 29.0 0.15 0.79 0.64 92 1002.0
20190120090253 40 165 13.0 25.0 0.14 0.78 0.63 93 1002.2
20190120085752 40 119 13.0 25.0 0.15 0.78 0.63 93 1002.5
20190120085251 40 149 15.0 29.0 0.14 0.76 0.62 93 1002.9
20190120084752 40 133 14.0 29.0 0.13 0.75 0.60 93 1003.1
20190120084253 40 129 13.0 25.0 0.15 0.75 0.60 93 1003.3
20190120083752 40 114 14.0 28.0 0.16 0.74 0.59 93 1003.3
20190120083251 40 105 12.0 28.0 0.17 0.72 0.57 93 1003.2
20190120082752 40 117 12.0 29.0 0.16 0.67 0.52 93 1003.7
20190120082252 40 142 15.0 29.0 0.19 0.67 0.52 93 1003.5
20190120081753 40 140 14.0 28.0 0.20 0.66 0.51 93 1003.1
20190120081253 40 117 14.0 27.0 0.22 0.65 0.50 93 1003.1
20190120080752 40 98 15.0 28.0 0.22 0.64 0.49 93 1003.4
20190120080250 40 128 16.0 28.0 0.25 0.64 0.49 93 1003.6
20190120075749 40 111 15.0 30.0 0.27 0.63 0.48 93 1003.9
20190120075251 40 153 15.0 30.0 0.30 0.62 0.47 93 1004.0
20190120074749 40 153 15.0 31.0 0.32 0.62 0.47 93 1004.1
20190120074249 40 156 16.0 31.0 0.33 0.60 0.46 93 1004.3
20190120073749 40 102 16.0 31.0 0.33 0.58 0.43 93 1004.9
20190120073250 40 114 15.0 31.0 0.29 0.54 0.40 92 1005.3
20190120072750 40 111 14.0 25.0 0.27 0.51 0.36 93 1005.7
20190120072249 40 134 13.0 24.0 0.25 0.48 0.33 92 1006.2
20190120071749 40 125 12.0 24.0 0.24 0.46 0.31 93 1006.4
20190120071248 40 130 13.0 24.0 0.22 0.43 0.29 93 1006.4
20190120070747 40 157 14.0 27.0 0.22 0.42 0.27 92 1006.4
20190120070249 40 138 15.0 27.0 0.20 0.39 0.24 92 1006.4
20190120065747 40 134 13.0 27.0 0.16 0.35 0.21 92 1006.7
20190120065248 40 119 12.0 23.0 0.14 0.32 0.17 92 1007.2
20190120064748 40 148 13.0 27.0 0.12 0.30 0.15 92 1007.4
20190120064248 40 106 13.0 27.0 0.09 0.27 0.13 92 1007.2
20190120063747 40 113 12.0 25.0 0.08 0.25 0.10 92 1007.2
20190120063248 40 150 13.0 25.0 0.08 0.25 0.10 92 1007.2
20190120062747 40 138 14.0 27.0 0.08 0.24 0.09 92 1007.2
20190120062247 40 150 13.0 27.0 0.07 0.23 0.08 92 1007.4
20190120061745 40 141 13.0 25.0 0.06 0.22 0.08 92 1007.8
20190120061245 40 152 13.0 25.0 0.05 0.21 0.06 92 1008.1
20190120060746 40 173 13.0 27.0 0.04 0.20 0.05 92 1008.0
20190120060246 40 113 14.0 30.0 0.04 0.19 0.04 92 1008.3
20190120055746 40 188 14.0 30.0 0.04 0.19 0.04 92 1008.2
20190120055246 40 164 12.0 27.0 0.03 0.18 0.03 92 1008.3
20190120054745 40 190 13.0 24.0 0.04 0.18 0.03 92 1008.4
20190120054245 40 136 14.0 24.0 0.04 0.18 0.03 92 1008.8
20190120053744 40 157 13.0 24.0 0.04 0.17 0.02 92 1009.2
20190120053243 40 119 12.0 24.0 0.04 0.17 0.02 92 1009.4
20190120052743 40 180 12.0 23.0 0.03 0.16 0.01 92 1009.8
20190120052243 40 149 12.0 23.0 0.04 0.16 0.01 92 1009.7
20190120051744 40 173 12.0 24.0 0.05 0.16 0.01 92 1009.8
20190120051243 40 138 12.0 24.0 0.06 0.16 0.01 92 1009.9
20190120050743 40 157 13.0 27.0 0.08 0.16 0.01 92 1010.1
20190120050244 40 175 13.0 27.0 0.09 0.15 0.00 92 1009.8
20190120045741 40 173 13.0 24.0 0.10 0.15 0.15 92 1010.2
20190120045241 40 184 13.0 25.0 0.11 0.15 0.15 92 1010.4
20190120044741 40 146 11.0 25.0 0.11 0.14 0.14 92 1010.5
20190120044241 39 196 11.0 21.0 0.12 0.14 0.14 92 1010.7
20190120043742 39 162 12.0 25.0 0.12 0.13 0.13 93 1010.8
20190120043239 38 155 11.0 25.0 0.12 0.13 0.13 93 1011.0
20190120042739 37 138 11.0 23.0 0.12 0.13 0.13 92 1011.2
20190120042240 37 137 11.0 23.0 0.11 0.12 0.12 91 1011.0
20190120041741 36 134 11.0 20.0 0.11 0.11 0.11 91 1010.9
20190120041239 36 138 9.0 16.0 0.10 0.10 0.10 90 1011.8
20190120040738 35 136 9.0 17.0 0.08 0.08 0.08 89 1011.9
20190120040239 35 152 9.0 18.0 0.06 0.06 0.06 89 1011.6
20190120035737 35 123 10.0 18.0 0.05 0.05 0.05 88 1012.2
20190120035238 35 139 10.0 18.0 0.04 0.04 0.04 87 1012.5
20190120034736 35 105 10.0 20.0 0.03 0.03 0.03 86 1012.9
20190120034235 35 115 11.0 20.0 0.02 0.02 0.02 86 1013.0
20190120033735 35 120 12.0 21.0 0.01 0.01 0.01 86 1013.3
20190120033235 35 105 11.0 21.0 0.01 0.01 0.01 85 1013.1
20190120032735 35 125 10.0 20.0 0.01 0.01 0.01 84 1013.9
20190120032235 35 96 11.0 20.0 0.01 0.01 0.01 83 1013.4
20190120031736 35 105 10.0 18.0 0.00 0.00 0.00 83 1013.7
20190120031235 35 111 9.0 16.0 0.00 0.00 0.00 82 1014.3
20190120030733 35 96 8.0 16.0 0.00 0.00 0.00 82 1014.7
20190120030233 35 120 8.0 14.0 0.00 0.00 0.00 81 1015.1
20190120025735 35 137 8.0 15.0 0.00 0.00 0.00 81 1015.3
20190120025234 35 90 8.0 15.0 0.00 0.00 0.00 81 1015.7
20190120024733 35 109 9.0 18.0 0.00 0.00 0.00 81 1015.4
20190120024233 35 136 8.0 18.0 0.00 0.00 0.00 81 1015.2
20190120023734 35 113 8.0 18.0 0.00 0.00 0.00 81 1015.8
20190120023234 35 156 8.0 18.0 0.00 0.00 0.00 80 1015.9
20190120022733 35 161 9.0 19.0 0.00 0.00 0.00 80 1015.9
20190120022231 35 110 10.0 19.0 0.00 0.00 0.00 80 1015.9
20190120021733 35 130 10.0 22.0 0.00 0.00 0.00 80 1015.8
20190120021231 35 133 11.0 25.0 0.00 0.00 0.00 80 1015.5
20190120020731 34 120 11.0 25.0 0.00 0.00 0.00 80 1015.7
20190120020232 34 144 10.0 19.0 0.00 0.00 0.00 79 1015.8
20190120015731 34 123 10.0 20.0 0.00 0.00 0.00 79 1016.0
20190120015231 34 126 10.0 21.0 0.00 0.00 0.00 79 1016.0
20190120014732 34 130 10.0 24.0 0.00 0.00 0.00 78 1016.0
20190120014231 34 136 11.0 24.0 0.00 0.00 0.00 78 1016.0
20190120013732 34 132 10.0 20.0 0.00 0.00 0.00 78 1016.1
20190120013229 34 78 11.0 21.0 0.00 0.00 0.00 78 1016.2
20190120012730 34 95 10.0 21.0 0.00 0.00 0.00 77 1016.1
20190120012229 34 125 9.0 19.0 0.00 0.00 0.00 77 1016.1
20190120011729 34 136 10.0 19.0 0.00 0.00 0.00 77 1016.2
20190120011231 34 123 10.0 19.0 0.00 0.00 0.00 77 1016.6
20190120010729 34 106 8.0 17.0 0.00 0.00 0.00 76 1017.0
20190120010230 34 161 9.0 21.0 0.00 0.00 0.00 76 1017.3
20190120005730 34 103 10.0 22.0 0.00 0.00 0.00 76 1017.5
20190120005228 34 140 11.0 22.0 0.00 0.00 0.00 76 1017.6
20190120004731 34 151 11.0 23.0 0.00 0.00 0.00 75 1017.8
20190120004229 34 107 11.0 23.0 0.00 0.00 0.00 75 1018.1
20190120003729 34 130 10.0 18.0 0.00 0.00 0.00 75 1018.1
20190120003230 34 161 10.0 22.0 0.00 0.00 0.00 76 1018.0
20190120002729 34 129 11.0 24.0 0.00 0.00 0.00 76 1018.1
20190120002230 34 113 11.0 24.0 0.00 0.00 0.00 76 1018.2
20190120001728 35 148 12.0 24.0 0.00 0.00 0.00 76 1018.1
20190120001230 35 118 10.0 24.0 0.00 0.00 0.00 76 1018.2
20190120000729 35 155 9.0 19.0 0.00 0.00 0.00 76 1018.1
20190120000230 35 130 10.0 18.0 0.00 0.00 0.00 76 1018.3
20190119235727 35 172 10.0 19.0 0.00 0.00 0.00 76 1018.6
20190119235226 35 132 10.0 19.0 0.00 0.00 0.00 75 1018.8
20190119234728 35 141 10.0 21.0 0.00 0.00 0.00 75 1018.8
20190119234227 35 132 10.0 21.0 0.00 0.00 0.00 75 1019.0
20190119233727 35 140 10.0 21.0 0.00 0.00 0.00 75 1018.9
20190119233228 35 160 10.0 18.0 0.00 0.00 0.00 74 1018.9
20190119232725 35 140 10.0 22.0 0.00 0.00 0.00 74 1018.8
20190119232225 35 136 11.0 22.0 0.00 0.00 0.00 74 1018.8
20190119231726 35 111 10.0 21.0 0.00 0.00 0.00 75 1018.7
20190119231222 35 82 8.0 23.0 0.00 0.00 0.00 74 1018.6